This demonstration page uses our WeatherBlox Daily Observations layout. Learn more.

Left ArrowRight Arrow

39.08367, -84.50855

Hourly Observations for November 24, 2018

Temp ( °F °C ) Dew Point ( °F °C ) Humidity (%) Winds ( mph kmh ) Pressure ( in mb ) Visibility ( mi km ) Precip ( " mm )
12:53 am 00:53 Cloudy with Light Rain 46 7.8 44 6.7 93 93 VRB 6 9 29.84 1011 8 13 0.08 2.03
1:53 am 01:53 Cloudy with Light Rain 46 7.8 44 6.7 93 93 SSE 8 13 29.81 1010 10 16 0.05 1.27
2:53 am 02:53 Cloudy with Rain 46 7.8 44 6.7 93 93 VRB 5 7 29.78 1009 7 11 0.05 1.27
3:12 am 03:12 Cloudy with Rain 46 7.8 44 6.7 93 93 S 6 9 29.80 1009 6 10 0.02 0.51
3:24 am 03:24 Cloudy with Light Rain 46 7.8 44 6.7 93 93 SE 12 19 29.80 1009 6 10 0.04 1.02
3:31 am 03:31 Cloudy with Light Rain 46 7.8 44 6.7 93 93 S 9 15 29.80 1009 7 11 0.05 1.27
3:53 am 03:53 Cloudy with Rain 46 7.8 45 7.2 96 96 S 13 20 29.75 1008 6 10 0.08 2.03
4:53 am 04:53 Cloudy with Light Rain 47 8.3 45 7.2 93 93 S 8 13 29.73 1007 6 10 0.08 2.03
5:19 am 05:19 Cloudy with Light Rain 47 8.3 46 7.8 97 97 S 10 17 29.74 1007 7 11 0.01 0.25
5:53 am 05:53 Cloudy 47 8.3 46 7.8 97 97 S 12 19 29.71 1006 10 16 0.01 0.25
6:53 am 06:53 Cloudy with Light Rain 48 8.9 47 8.3 96 96 S 12 19 29.70 1006 8 13 0.01 0.25
7:53 am 07:53 Cloudy with Mist and Fog 48 8.9 47 8.3 96 96 S 14 22 29.69 1006 4 6 0.00 0.03
8:53 am 08:53 Cloudy with Mist and Fog 48 8.9 48 8.9 100 100 S 13 20 29.70 1006 3 5 0.01 0.25
9:53 am 09:53 Cloudy 49 9.4 48 8.9 97 97 SSW 13 20 29.70 1006 10 16 0.00 0.03
10:53 am 10:53 Cloudy with Mist and Fog 50 10 49 9.4 96 96 SSW 13 20 29.70 1006 6 10 0.00 0.00
11:37 am 11:37 Cloudy 51 10.6 49 9.4 92 92 SSW 13 20 29.74 1007 10 16 0.00 0.00
11:53 am 11:53 Cloudy 52 11.1 49 9.4 89 89 SSW 13 20 29.70 1006 10 16 0.00 0.00
12:53 pm 12:53 Mostly Cloudy 54 12.2 51 10.6 90 90 SSW 12 19 29.68 1005 10 16 0.00 0.00
1:53 pm 13:53 Cloudy 54 12.2 49 9.4 83 83 SW 12 19 29.68 1005 10 16 0.00 0.00
2:53 pm 14:53 Mostly Cloudy 55 12.8 48 8.9 77 77 SW 15 24 29.68 1005 10 16 0.00 0.00
3:53 pm 15:53 Mostly Sunny 55 12.8 47 8.3 74 74 SSW 12 19 29.70 1006 10 16 0.00 0.00
4:53 pm 16:53 Sunny 52 11.1 46 7.8 80 80 SSW 13 20 29.72 1006 10 16 0.00 0.00
5:53 pm 17:53 Clear 49 9.4 45 7.2 86 86 SSW 10 17 29.73 1007 10 16 0.00 0.00
6:53 pm 18:53 Clear 44 6.7 43 6.1 96 96 SW 7 11 29.75 1008 10 16 0.00 0.00
7:53 pm 19:53 Clear with Mist and Fog 43 6.1 42 5.6 97 97 SW 7 11 29.77 1008 6 10 0.00 0.00
8:53 pm 20:53 Clear with Mist and Fog 42 5.6 42 5.6 100 100 Calm 29.78 1008 6 10 0.00 0.00
9:53 pm 21:53 Clear with Mist and Fog 41 5 41 5 100 100 Calm 29.80 1009 5 8 0.00 0.00
10:53 pm 22:53 Clear with Mist and Fog 41 5 41 5 100 100 Calm 29.82 1010 3 5 0.00 0.00
11:06 pm 23:06 Clear with Fog 39 3.9 39 3.9 100 100 Calm 29.85 1011 0 0 0.00 0.00
11:17 pm 23:17 Clear with Mist and Fog 40 4.4 40 4.4 100 100 Calm 29.85 1011 1 1 0.00 0.00
11:53 pm 23:53 Clear with Fog 38 3.3 38 3.3 100 100 Calm 29.84 1010 0 0 0.00 0.00

Powered by AerisWeather